Weather History for North Adams, MA

Change the Weather History Date:

Friday, November 30, 2012

  Actual Average Record
Temperature  
Mean Temperature 33 °F -  
Max Temperature 39 °F 40 °F 66 °F (2001)
Min Temperature 27 °F 25 °F 9 °F (2013)
Degree Days  
Heating Degree Days 32    
Moisture  
Dew Point 12 °F    
Average Humidity 50    
Maximum Humidity 72    
Minimum Humidity 32    
Precipitation  
Precipitation 0.00 in - - ()
Sea Level Pressure  
Sea Level Pressure 30.42 in    
Wind  
Wind Speed 6 mph (WNW)    
Max Wind Speed 13 mph    
Max Gust Speed 16 mph    
Visibility 10 miles    
Events      
Averages and records for this station are not official NWS values.
T = Trace of Precipitation, MM = Missing Value Source: NWS Daily Summary

Daily Weather History Graph

Daily Weather History Graph

Search for Another Location

Airport:

Trip Planner

Search our weather history database for the weather conditions in past years. The results will help you decide how hot, cold, wet, or windy it might be!

Date:

Astronomy

Nov. 30, 2012 Rise Set
Actual Time 7:02 AM EST 4:20 PM EST
Civil Twilight 6:31 AM EST 4:51 PM EST
Nautical Twilight 5:56 AM EST 5:26 PM EST
Astronomical Twilight 5:22 AM EST 6:00 PM EST
Moon 6:12 PM EST (11/30) 8:32 AM EST (11/30)
Length of Visible Light 10h 20m
Length of Day
9h 17m
Waning Gibbous, 96% of the Moon is Illuminated
Nov 30
Waning Gibbous
Dec 6
Last Quarter
Dec 13
New
Dec 20
First Quarter
Dec 28
Full

Hourly Weather History & Observations

Time (EST) Temp. Windchill Dew Point Humidity Pressure Visibility Wind Dir Wind Speed Gust Speed Precip Events Conditions
12:52 AM 39.9 °F 33.4 °F 18.0 °F 41% 30.22 in 10.0 mi West 10.4 mph - N/A   Overcast
1:52 AM 36.0 °F 30.3 °F 23.0 °F 59% 30.26 in 10.0 mi NW 6.9 mph - N/A   Overcast
2:52 AM 30.9 °F 25.2 °F 23.0 °F 72% 30.30 in 10.0 mi Variable 5.8 mph - N/A   Overcast
3:14 AM 30.2 °F 24.3 °F 21.2 °F 69% 30.29 in 10.0 mi WNW 5.8 mph - N/A   Overcast
3:52 AM 30.0 °F 23.2 °F 19.9 °F 66% 30.33 in 10.0 mi West 6.9 mph - N/A   Overcast
4:52 AM 30.0 °F - 19.0 °F 64% 30.34 in 10.0 mi Calm Calm - N/A   Overcast
5:01 AM 30.2 °F 25.4 °F 17.6 °F 60% 30.32 in 10.0 mi Variable 4.6 mph - N/A   Overcast
5:52 AM 28.9 °F 23.9 °F 16.0 °F 58% 30.37 in 10.0 mi Variable 4.6 mph - N/A   Overcast
6:52 AM 27.0 °F 20.5 °F 15.1 °F 61% 30.40 in 10.0 mi West 5.8 mph - N/A   Overcast
7:52 AM 27.0 °F 20.5 °F 14.0 °F 58% 30.43 in 10.0 mi West 5.8 mph - N/A   Overcast
8:52 AM 27.0 °F 20.5 °F 14.0 °F 58% 30.45 in 10.0 mi WNW 5.8 mph - N/A   Overcast
9:52 AM 27.0 °F 21.6 °F 12.0 °F 53% 30.46 in 10.0 mi WNW 4.6 mph - N/A   Overcast
10:52 AM 28.9 °F - 10.9 °F 47% 30.46 in 10.0 mi Calm Calm - N/A   Overcast
11:52 AM 30.0 °F 26.5 °F 10.9 °F 45% 30.45 in 10.0 mi WNW 3.5 mph - N/A   Overcast
12:52 PM 30.9 °F - 10.9 °F 43% 30.44 in 10.0 mi Calm Calm - N/A   Overcast
1:52 PM 30.0 °F 26.5 °F 10.9 °F 45% 30.44 in 10.0 mi Variable 3.5 mph - N/A   Overcast
2:52 PM 28.9 °F 23.9 °F 10.0 °F 45% 30.45 in 10.0 mi Variable 4.6 mph - N/A   Overcast
3:52 PM 28.0 °F 24.2 °F 10.0 °F 47% 30.45 in 10.0 mi WNW 3.5 mph - N/A   Overcast
4:52 PM 28.0 °F 22.8 °F 10.0 °F 47% 30.47 in 10.0 mi West 4.6 mph - N/A   Overcast
5:52 PM 27.0 °F - 10.0 °F 49% 30.48 in 10.0 mi Calm Calm - N/A   Overcast
6:52 PM 27.0 °F - 10.9 °F 51% 30.50 in 10.0 mi Calm Calm - N/A   Overcast
7:52 PM 28.9 °F 20.4 °F 1.9 °F 32% 30.51 in 10.0 mi East 9.2 mph 16.1 mph N/A   Overcast
8:52 PM 28.9 °F 21.1 °F 1.9 °F 32% 30.51 in 10.0 mi East 8.1 mph - N/A   Overcast
9:52 PM 28.9 °F 22.8 °F 3.0 °F 33% 30.51 in 10.0 mi East 5.8 mph - N/A   Overcast
10:52 PM 28.0 °F 17.5 °F 3.0 °F 34% 30.52 in 10.0 mi East 12.7 mph - N/A   Overcast
11:52 PM 28.0 °F 17.5 °F 3.9 °F 36% 30.52 in 10.0 mi ESE 12.7 mph - N/A   Overcast